User: anonymous   Login
Location: Caltech
(34.1382°N, 118.1253°W)
Time: 12:22:06
(UTC-07:00)
Language:

Cosmos 1758 Rocket - Orbit

View from above orbital plane
View from above orbital plane
View from above satellite
View from above satellite

Ground track
Ground track

The orbit data is extracted from the following two-line orbital elements,

1 16792U 86046B   15186.51804650  .00000334  00000-0  38012-4 0  9997
2 16792 082.4830 152.8990 0025754 117.6200 021.9413 14.82934281569255
Epoch (UTC): 05 July 2015 12:25:59
Eccentricity: 0.0025754
inclination: 82.4830°
perigee height: 602 km
apogee height: 638 km
right ascension of ascending node: 152.8990°
argument of perigee: 117.6200°
revolutions per day: 14.82934281
mean anomaly at epoch: 21.9413°
orbit number at epoch: 56925

The dashed part of the orbit path shows where the satellite is in the earth's shadow,  

DLR